Wind from 290 at 3 knots

Air temperature 20.0° C
Dewpoint 5.0° C

Last reported at 2014-Apr-18 19:30 UTC.
Time now 2014-Apr-19 00:14 UTC

Location: N 41°43' W 004°51'.
View on Google Maps.

See reports from other nearby stations

Tides Stations Pressure Air Temp Water Temp Dewpoint Dewpoint depression Visibility Wind Speed Wind Dir Waves Ship positions

  
sailing weather and tide predictions

VALLADOLID / VILLANUBLA weather

date/time (UTC)wind fromknots sea level pressurealtimeterstation pressurevisibilityair tempwater tempwave heightnotes
2014-Apr-18 19:30 290 3 20.0
2014-Apr-18 19:00 300 2 20.0
2014-Apr-18 18:30 320 6 21.0
2014-Apr-18 18:00 320 6 23.0
2014-Apr-18 17:30 310 7 23.0
2014-Apr-18 17:00 310 9 24.0
2014-Apr-18 16:30 300 10 24.0
2014-Apr-18 16:00 310 9 24.0
2014-Apr-18 15:30 320 11 24.0
2014-Apr-18 15:00 330 11 24.0
2014-Apr-18 14:30 300 7 24.0
2014-Apr-18 14:00 330 6 24.0
2014-Apr-18 13:30 340 5 23.0
2014-Apr-18 13:00 350 1 24.0
2014-Apr-18 12:30 23.0
2014-Apr-18 12:00 22.0
2014-Apr-18 11:30 180 1 22.0
2014-Apr-18 11:00 080 4 21.0
2014-Apr-18 10:30 070 6 20.0
2014-Apr-18 10:00 060 5 18.0
2014-Apr-18 09:30 18.0
2014-Apr-18 09:00 17.0
2014-Apr-18 08:30 080 3 16.0
2014-Apr-18 08:00 14.0
2014-Apr-18 07:30 12.0
2014-Apr-18 07:00 060 4 11.0
2014-Apr-18 06:30 090 5 10.0
2014-Apr-18 06:00 090 6 8.0
2014-Apr-18 05:30 090 7 8.0
2014-Apr-18 05:00 100 6 7.0
2014-Apr-17 19:30 060 7 15.0
2014-Apr-17 19:00 050 6 5.418.0
2014-Apr-17 18:30 040 3 5.421.0
2014-Apr-17 18:00 040 4 5.422.0
2014-Apr-17 16:30 040 6 23.0
2014-Apr-17 15:30 24.0
2014-Apr-17 15:00 110 2 24.0
2014-Apr-17 14:30 100 5 24.0
2014-Apr-17 14:00 080 3 5.423.0
2014-Apr-17 13:30 050 3 5.423.0
2014-Apr-17 13:00 060 4 23.0
2014-Apr-17 12:30 070 3 22.0
2014-Apr-17 12:00 050 5 22.0
2014-Apr-17 11:30 090 7 21.0
2014-Apr-17 11:00 090 7 21.0
2014-Apr-17 10:30 080 10 20.0
2014-Apr-17 10:00 080 9 19.0
2014-Apr-17 09:30 080 8 18.0
2014-Apr-17 09:00 080 8 17.0
2014-Apr-17 08:30 070 7 16.0
2014-Apr-17 08:00 080 6 15.0
2014-Apr-17 07:30 070 5 14.0
2014-Apr-17 07:00 090 4 13.0
2014-Apr-17 06:30 080 7 11.0
2014-Apr-17 06:00 080 7 10.0
2014-Apr-17 05:30 090 8 10.0
2014-Apr-17 05:00 080 7 10.0
2014-Apr-17 04:30 070 6 12.0
2014-Apr-17 04:00 080 5 11.0